Погода в Тюкалинске

Погода в Тюкалинске : погода сейчас, прогноз погоды и архив. Всё, что Вы хотите узнать о погоде в Тюкалинске!

Хотите узнать прогноз погоды в Тюкалинске? Тогда Вам сюда: Погода в Тюкалинске

Поиск расширенной информации на нашем сайте:

Другие новости

Новости СМИ2

Главная страница сайта

Новости сайта

03.07.2017

Напоминаем, что на нашем специализированном сайте Метеоцентр.Азия вы можете получить высокодетализированные автоматические прогнозы погоды по пунктам России, СНГ и мира в авиационном формате (включающие направление и скорость ветра, видимость, явления погоды, количество и форму облачности, нижнюю и верхнюю границу облачности).


Погода в Тюкалинске - сегодня

Время (UTC), дата Ветер
(°,м/с) 
Видим.   Явления Облачность Т
(°С)
Тd
(°С)
f(%) Тe
(°С)
Pmin
(гПа)
dP
(гПа)
Po
(мм)
O2
(г/м3)
Тmin Tmax R s Состояние
почвы
00 19.11.17 240 (ЮЗ) 10 км    10/10 600 м 
[Sc]
-3.2 -6.3 79 -4  1022.4  1.2  756  309           
03 19.11.17 210 (ЮЗ) 4000 м  слаб. снег  10/0 средняя 
[As op]
-4 -6.7 81 -6  1023.5  1.1  756  310  -4.4    0.0  равномерный
сухой снег
100% 
06 19.11.17 220 (ЮЗ) 20000 м  в посл. час снег  10/4 300 м средняя 
[Frnb|As trans]
-2.2 -4.6 84 -5  1023.7  0.3  757  308           
09 19.11.17 240 (ЮЗ) 20000 м    10/10 600 м 
[Sc]
-1.1 -4 81 -4  1024.1  0.4  757  307           
12 19.11.17 240 (ЮЗ) 4000 м  слаб. снег  10/10 600 м 
[Sc diur, vesp]
-1.1 -3.3 85 -4  1025.7  1.6  758  307           
15 19.11.17 250 (З) 10 км  {снег}  10/10 600 м 
[Sc]
-1.2 -3.6 84 -4  1026.8  1.1  759  308    -0.9  0.2     
18 19.11.17 250 (З) 10 км  {снег}  10/10 600 м 
[Sc]
-0.5 -3 83 -3  1027.9  1.1  760  307           
21 19.11.17 240 (ЮЗ) 10 км    10/0 средняя 
[As op]
-0.7 -3 84 -3  1028.9  0.9  761  308           
00 20.11.17 230 (ЮЗ) 10 км    10/0 средняя 
[As trans]
-1.1 -3.3 85 -3  1029.6  0.7  761  308           
03 20.11.17 230 (ЮЗ) 20000 м    10/10 600 м 
[Sc]
-1.2 -3.9 82 -3  1029.9  0.3  761  309  -1.2      равномерный
сухой снег
100% 
06 20.11.17 190 (Ю) 20000 м  {снег}  9/9 600 м 
[Sc]
+0.5 -3.4 75 1029.8  761  307           
09 20.11.17 220 (ЮЗ) 20000 м    10/0 средняя 
[As trans]
+0.5 -1.7 85 -2  1029.4  -0.4  761  306           
12 20.11.17 230 (ЮЗ) 10 км    10/10 600 м 
[Sc]
-0 -3.2 79 -2  1029.6  0.2  761  307           
15 20.11.17 230 (ЮЗ) 10 км    8/8 600 м 
[Sc]
-2.7 -4.8 85 -4  1030.1  0.4  761  310    +1.1  0.2     
18 20.11.17 240 (ЮЗ) 10 км    10/10 600 м 
[Sc]
-0.6 -3.7 80 -3  1029.6  -0.4  761  308           
21 20.11.17 240 (ЮЗ) 10 км    10/10 600 м 
[Sc]
-1.2 -3.7 83 -2  1029.7  761  308           
00 21.11.17 200 (Ю) 10 км    10/10 600 м 
[Sc]
-0.8 -3.1 84 -3  1029.5  -0.1  761  308           
03 21.11.17 210 (ЮЗ) 20000 м    10/0 средняя 
[As op]
-1.3 -3.1 88 -3  1029.4  0.1  761  308  -3.6      равномерный
сухой снег
100% 
06 21.11.17 230 (ЮЗ) 20000 м    10/0 средняя 
[Ac As]
+0 -3 80 -2  1029.4  761  307           
09 21.11.17 210 (ЮЗ) 20000 м    8/0 верхняя 
[Cc]
+1.4 -3.6 69 -1  1028.8  -0.5  761  305           
12 21.11.17 230 (ЮЗ) 10 км    9/9 600 м 
[Sc]
+1.1 -4.7 65 -1  1029.2  0.4  761  306           
15 21.11.17 230 (ЮЗ) 10 км    10/0 средняя 
[As op]
+1.8 -5.3 59 1029.3  0.1  761  305    +1.8       
18 21.11.17 230 (ЮЗ) 10 км    10/0 средняя 
[As op]
+0.9 -4.7 66 -1  1029.6  0.3  761  306           
21 21.11.17 220 (ЮЗ) 10 км    10/0 средняя 
[Ac As]
-1.8 -6.4 71 -3  1030.2  0.4  761  310           
00 22.11.17 180 (Ю) 10 км    8/0 верхняя 
[Ci fib]
-4.4 -7.6 78 -6  1030  -0.4  761  313           
Время (UTC), дата Ветер
(°,м/с) 
Видим.   Явления Облачность Т
(°С)
Тd
(°С)
f(%) Тe
(°С)
Pmin
(гПа)
dP
(гПа)
Po
(мм)
O2
(г/м3)
Тmin Tmax R s Состояние
почвы

Для получения пояснительной информации подведите курсор к названию столбца.

ПОГОДА в Тюкалинске - архив

Всё, что Вы хотите узнать о погоде в Тюкалинске - удобно и подробно!

Выберите нужную дату (начиная с 1 января 2015* года) и нажмите кнопку "Найти".
Будут отображены архивные сводки погоды по пункту Тюкалинск, начиная с указанной даты.


Отображать данные в формате CSV (для использования в таблицах Excel)


Внимание! Наш архив погоды предназначен исключительно для личного некоммерческого использования в познавательных целях. Если Вам необходимы официальные справки о состоянии погоды (для производственных, юридических, коммерческих и т.п. целей), обращайтесь в органы Росгидромета.

*Примечание: данная дата относится к архиву по метеостанциям СССР (Россия, СНГ, Балтия).
Архив по метеостанциям Зарубежной Европы и Азии (кроме Китая) хранится 10 дней, по другим регионам земного шара (Китай, Африка, Америка, Австралия, Океания) - 1 день.

Тюкалинск - район местоположения метеостанции


Название, широта, долгота, высота метеостанции:
Тюкалинск 55.9°ш. 72.2°д. 118 м над ур. моря [Российская Федерация]

Дополнительная информация

В oтличие oт бoльшинства пoгoдных сайтoв мы публикуем пoдрoбную метеoинфoрмацию в детальнoм прoфессиoнальнoм фoрмате.

Характеристики температуры и влажнoсти вoздуха измеряются на высoте 2 м в тени вдали oт зданий и деревьев.
Скoрoсть ветра измеряется на высoте 10 м (на урoвне рoста челoвека скoрoсть ветра ниже в 1.5-2 раза). Если метеoстанция нахoдится в гoрoде или в лесу, тo скoрoсть ветра занижена на 2-4 м/с пo сравнению с oткрытым местoм. Скoрoсть ветра над акватoриями крупных рек и oзёр, а также на вершинах хoлмoв на 2-5 м/с выше, чем в oбычных услoвиях.
Атмoсфернoе давление в разных тoчках местнoсти мoжет значительнo oтличаться oт давления на метеoстанции, в зависимoсти oт услoвий рельефа (при пoдъёме на 10 м давление пoнижается примернo на 1 мм рт.ст.).